Location: Brahman Valley
(40.6513°N, 111.8855°W)
Time: 09:03:22
(UTC+00:00)

Tiros 1 despin weight - Pass Details

Date: 12 May 2021
Orbit: 594 x 641 km, 48.2° (Epoch: 22 June)

Event Time Altitude Azimuth Distance (km) Brightness Sun altitude
Rises 07:39:25 0° 294° (WNW) 2,943 ? -31.0°
Reaches altitude 10° 07:41:55 10° 303° (WNW) 2,033 ? -31.0°
Maximum altitude 07:46:14 35° 9° (N) 1,033 ? -30.9°
Drops below altitude 10° 07:50:31 10° 76° (ENE) 2,020 ? -30.8°
Sets 07:53:00 0° 86° (E) 2,922 ? -30.7°
